Regional Weather Roundup
Issued by NWS

Home | Current Version | Previous Version | Text Only | Print | Product List | Glossary On
Versions: 1 2 3 4 5 6 7 8 9 10 11 12 13 14 15 16 17 18 19 20 21 22 23 24 25 26 27 28 29 30 31 32 33 34 35 36 37 38 39 40 41 42 43 44 45 46 47 48 49 50
000
ASHW40 PHFO 100512
RWRHI

WEATHER ROUNDUP FOR HAWAII
NATIONAL WEATHER SERVICE HONOLULU HI
700 PM HST FRI DEC 09 2016

THIS IS AN AUTOMATED REPORT THAT HAS NOT BEEN QUALITY CONTROLLED.

NOTE..."FAIR" INDICATES FEW OR NO CLOUDS BELOW 12,000 FEET WITH NO
SIGNIFICANT WEATHER AND/OR OBSTRUCTIONS TO VISIBILITY.

* - THESE SITES REPORT LIMITED FIELDS

HIZ001>004-100600-
KAUAI-NIIHAU-

CITY           SKY/WX    TMP DP  RH WIND       PRES   REMARKS
LIHUE APT      CLOUDY    75  68  78 SW6       29.96R
PORT ALLEN*      N/A     75 N/A N/A W2          N/A
POIPU*           N/A     75 N/A N/A W2          N/A
PRINCEVILLE*   NOT AVBL
KOKOLE POINT*  NOT AVBL
MOLOAA DAIRY*    N/A     72  68  88 W3          N/A
WAIMEA HTS*    NOT AVBL
PUU OPAE*      NOT AVBL
PUU LUA*       NOT AVBL
MAKAHA RIDGE*  NOT AVBL
$$

HIZ005>011-100600-
OAHU-

CITY           SKY/WX    TMP DP  RH WIND       PRES   REMARKS
HONOLULU       CLOUDY    74  68  81 N3        29.96R
KALAELOA       CLOUDY    73  70  90 CALM      29.97R
KANEOHE MCB    PTCLDY    75  70  83 CALM      29.93R
WHEELER FIELD  PTCLDY    70  69  96 CALM      29.97R
BELLOWS*       NOT AVBL
KAHUKU*        NOT AVBL
WHEELER*       NOT AVBL
WAIANAE HARBOR NOT AVBL
DILLINGHAM*      N/A     81  75  83 MISG        N/A
KAHUKU TRN*      N/A     79  75  89 NE1         N/A
KAWAILOA*        N/A     70  63  78 E5          N/A
KII*             N/A     73  72  94 NW3         N/A
MAKUA RANGE*     N/A     81  75  83 N3          N/A
OAHU FOREST NW NOT AVBL
SCHOFIELD BRK*   N/A     75  73  94 MISG        N/A
SCHOFIELD S*   NOT AVBL
WAIANAE VLY*   NOT AVBL
KUAOKALA*      NOT AVBL
HONOULIUULI*   NOT AVBL
MOKUOLOE IS*   NOT AVBL
PALEHUA*       NOT AVBL
WAIAWA PHB*    NOT AVBL
$$

HIZ012>013-100600-
MOLOKAI-

CITY           SKY/WX    TMP DP  RH WIND       PRES   REMARKS
MOLOKAI AIRPT  MOCLDY    74  69  85 CALM      29.98R
KALAUPAPA      NOT AVBL
MAKAPULAPAI*   NOT AVBL
MOLOKAI 1*     NOT AVBL
PUU ALII*      NOT AVBL
$$

HIZ016-100600-
KAHOOLAWE-

CITY           SKY/WX    TMP DP  RH WIND       PRES   REMARKS
KAHOOLAWE*     NOT AVBL
HAKIOAWA*      NOT AVBL
HONOKANAIA*      N/A     74  67  80 NE3       29.88R
KANELOA*         N/A     73  68  83 N3        30.01R
KEALIALALO*    NOT AVBL
LUA MAKIKA*    NOT AVBL
$$

HIZ014>015-100600-
LANAI-

CITY           SKY/WX    TMP DP  RH WIND       PRES   REMARKS
LANAI CITY     FAIR      70  65  84 SE5       30.03R
LANAI 1*       NOT AVBL
$$

HIZ017>028-100600-
MAUI-

CITY           SKY/WX    TMP DP  RH WIND       PRES   REMARKS
KAHULUI        CLOUDY    75  69  81 S3        29.97R
KAPALUA-W MAUI NOT AVBL
HANA AIRPORT     N/A     70  68  94 S2        30.00R
HANA*            N/A     72 N/A N/A S3          N/A
HALEAKALA SUMM   N/A     43  43 100 SW10G22     N/A
MAALAEA BAY*   NOT AVBL
HALEAKALA*     NOT AVBL
KAUPO GAP*     NOT AVBL
KULA 1*          N/A     57  48  72 SE8G14      N/A
$$

HIZ023>026-100600-
BIG ISLAND OF HAWAII COAST AND LOWER SLOPES-

CITY           SKY/WX    TMP DP  RH WIND       PRES   REMARKS
KAILUA KONA    CLOUDY    74  70  87 N7        29.95R
HILO           CLOUDY    74  70  87 S3        29.95R
HONOKAA*         N/A     68 N/A N/A VRB1        N/A
KAWAIHAE MWT*    N/A     75 N/A N/A SE1         N/A
KAWAIHAE*      NOT AVBL
SOUTH POINT*     N/A     72 N/A N/A N9          N/A
UPOLU AIRPORT* NOT AVBL
KAMUELA*       CLOUDY    64  64 100 NE5       30.08R
HAKALAU*         N/A     53  50  90 SW3         N/A
KALOKO-HONOKO* NOT AVBL
PALI 2*          N/A     64  63  94 N6          N/A
KEALAKOMO*       N/A     75  70  83 SE3         N/A
KAUPULEHU*     NOT AVBL
KAPAPALA*      NOT AVBL
LOWER KAHUKU*  NOT AVBL
PUHE CS*       NOT AVBL
PUHO CS*       NOT AVBL
PTA KEAMUKU*     N/A     63  63 100 CALM        N/A
WAIKOLOA*      NOT AVBL
$$

HIZ027>028-100600-
BIG ISLAND OF HAWAII INTERIOR AND SUMMMITS-

CITY           SKY/WX    TMP DP  RH WIND       PRES   REMARKS
BRADSHAW FIELD CLOUDY    57  52  82 CALM      30.29R
MK VISITOR CEN   N/A     50  37  62 S5          N/A
MAUNA KEA*       N/A     30  30 100 S25         N/A  WCI  16
MAUNA LOA*     NOT AVBL
MAUNA LOA 1*   NOT AVBL
PTA KIPUKA*      N/A     64  64 100 E3          N/A
PTA RANGE 17*    N/A     64  59  82 E3          N/A
PTA WEST*        N/A    N/A N/A N/A E2          N/A
NENE CABIN*    NOT AVBL
AHUMOA*        NOT AVBL
PTA PORTABLE*  NOT AVBL
PUU MALI*        N/A     55  50  82 SE7         N/A
$$

HIC003-100600-
NORTHWEST ISLANDS-

CITY           SKY/WX    TMP DP  RH WIND       PRES   REMARKS
MIDWAY ISLAND  PTCLDY    70  66  88 CALM      30.02R
MIDWAY NOS*    NOT AVBL
FRENCH FRIGATE NOT AVBL
$$

PHZ110>124-180-100600-
BUOY REPORTS

STATION/POSITION TIME  TEMP    WIND        PRES    WAVE   SWELL
                       AIR SEA DIR/SP/G            HT/PER HT/DIR
                 (UTC) (F)     (DEG/KT/KT) (MB)    (FT/S) (FT/D)
BUOY 51001       0450   75 78  300/  4/  6 1013.5R   8/12   8/ 10
BUOY 51101       0450   76 78  300/  2/  4 1014.3R   7/13   7/ 10
BUOY 51100       NOT AVBL
BUOY 51002       0450   78 78  120/ 12/ 16 1013.5R   5/ 8   3/100
BUOY 51003       0450   78 80   40/  2/  2 1013.9R   5/11   5/320
BUOY 51004       0350   73 79  110/ 12/ 16 1014.1    7/ 8   7/110
BARBERS PT BUOY  NOT AVBL
WAIMEA BAY BUOY  NOT AVBL
KAILUA BAY BUOY  0434      78                N/A     4/11   2/ 10
LANAI BUOY       0445      78                N/A     3/11   2/270
BARBERS PT 2     0439      79                N/A     3/12   2/290
PAUWELA MAUI     0439      77                N/A     4/11   2
HILO             0442      77                N/A     5/11   2/360
KANEOHE BAY BUOY 0436      77                N/A     3/12   2/360
HANALEI KAUAI    0452      78                N/A     6/11   3/340
KAHULUI HARBOR   0442   75 78  250/  3/  5 1014.4R
HONOLULU HARBOR  0442   76 78  310/  3/  4 1015.0R
KILO NALU        NOT AVBL
HILO HARBOR      0442   75 76  190/  2/  4 1013.8R
MOKUOLOE         0436   74     180/  2/  3   N/A
NAWILIWILI       0448      78                N/A
WHOTS BUOY       NOT AVBL
BUOY 51028       NOT AVBL
$$

......................KEY........................................
  SKY/WX - SKY CONDITIONS/PRESENT WEATHER
  TMP    - TEMPERATURE IN FAHRENHEIT
  DWPT   - DEWPOINT IN FAHRENHEIT
  RH     - RELATIVE HUMIDITY IN PERCENT
  WIND   - DIRECTION AND SPEED /MPH FOR ISLANDS...KTS FOR BUOYS/
  PRES   - MEAN SEA LEVEL PRESSURE IN INCHES OF HG
  VSB    - VISIBILITY IN MILES
  HX     - HEAT INDEX
  WCI    - WIND CHILL INDEX
  VRB    - VARIABLE WIND DIRECTION
  N/A    - NOT AVAILABLE



USA.gov is the U.S. government's official web portal to all federal, state and local government web resources and services.